#timestamp,LO_Frequency,Hit,Temp,Hum 
1479924015.7,286046999.0,N,0.0,0.0
1479924035.5,286046996.5,N,0.0,0.0
1479924055.4,286046997.0,N,0.0,0.0
1479924075.2,286046996.8,N,0.0,0.0
1479924095.1,286046999.1,N,0.0,0.0
1479924096.0,286046999.1,N,0.0,0.0
1479924115.8,286046999.6,N,0.0,0.0
1479924135.6,286046999.3,N,0.0,0.0
1479924155.5,286046999.4,N,0.0,0.0
1479924175.3,286046998.3,N,0.0,0.0
1479924195.2,286046998.2,N,0.0,0.0
1479924215.9,286046999.0,N,0.0,0.0
1479924235.7,286046998.7,N,0.0,0.0
1479924255.6,286046999.2,N,0.0,0.0
1479924275.4,286046999.6,N,0.0,0.0
1479924295.2,286046997.1,N,0.0,0.0
1479924315.1,286046997.8,N,0.0,0.0
1479924316.0,286046997.8,N,0.0,0.0
1479924335.8,286046996.7,N,0.0,0.0
1479924355.7,286046997.0,N,0.0,0.0
1479924375.5,286046997.0,N,0.0,0.0
1479924395.3,286046997.1,N,0.0,0.0
1479924415.2,286046997.3,N,0.0,0.0
1479924435.0,286046997.1,N,0.0,0.0
1479924435.9,286046997.1,N,0.0,0.0
1479924455.8,286046998.0,N,0.0,0.0
1479924475.6,286046995.0,N,0.0,0.0
1479924495.4,286046995.3,N,0.0,0.0
1479924515.3,286046995.3,N,0.0,0.0
1479924535.1,286046995.3,N,0.0,0.0
1479924555.9,286046996.8,N,0.0,0.0
1479924575.7,286046997.5,N,0.0,0.0
1479924595.5,286046996.7,N,0.0,0.0
1479924615.4,286046999.5,N,0.0,0.0
1479924635.2,286046996.5,N,0.0,0.0
1479924655.0,286046999.1,N,0.0,0.0
1479924655.9,286046999.1,N,0.0,0.0
1479924675.8,286046998.2,N,0.0,0.0
1479924695.6,286046998.7,N,0.0,0.0
1479924715.5,286046998.4,N,0.0,0.0
1479924735.3,286046999.3,N,0.0,0.0
1479924755.1,286046999.4,N,0.0,0.0
1479924775.9,286046999.0,N,0.0,0.0
1479924795.7,286046999.0,N,0.0,0.0
1479924815.5,286046998.2,N,0.0,0.0
1479924835.4,286047001.2,N,0.0,0.0
1479924855.2,286047001.2,N,0.0,0.0
1479924875.1,286046998.5,N,0.0,0.0
1479924876.0,286046998.5,N,0.0,0.0
1479924895.8,286047000.8,N,0.0,0.0
1479924915.6,286047000.6,N,0.0,0.0
1479924935.5,286047000.1,N,0.0,0.0
1479924955.3,286047000.6,N,0.0,0.0
1479924975.2,286047001.0,N,0.0,0.0
1479924995.9,286046999.8,N,0.0,0.0
1479925015.7,286047002.2,N,0.0,0.0
1479925035.6,286047004.2,N,0.0,0.0
1479925055.4,286047003.2,N,0.0,0.0
1479925075.2,286047003.5,N,0.0,0.0
1479925095.1,286047004.1,N,0.0,0.0
1479925096.0,286047004.1,N,0.0,0.0
1479925115.8,286047004.4,N,0.0,0.0
1479925135.7,286047003.4,N,0.0,0.0
1479925155.5,286047005.4,N,0.0,0.0
1479925175.3,286047007.1,N,0.0,0.0
1479925195.2,286047006.6,N,0.0,0.0
1479925215.0,286047009.2,N,0.0,0.0
1479925215.9,286047009.2,N,0.0,0.0
1479925235.8,286047008.7,N,0.0,0.0
1479925255.6,286047006.7,N,0.0,0.0
1479925275.4,286047006.3,N,0.0,0.0
1479925295.3,286047008.6,N,0.0,0.0
1479925315.1,286047007.7,N,0.0,0.0
1479925335.8,286047010.2,N,0.0,0.0
1479925355.7,286047009.8,N,0.0,0.0
1479925375.5,286047010.2,N,0.0,0.0
1479925395.4,286047007.9,N,0.0,0.0
1479925415.2,286047007.8,N,0.0,0.0
1479925435.0,286047009.7,N,0.0,0.0
1479925435.9,286047009.7,N,0.0,0.0
1479925455.8,286047009.7,N,0.0,0.0
1479925475.6,286047010.7,N,0.0,0.0
1479925495.4,286047012.3,N,0.0,0.0
1479925515.3,286047012.1,N,0.0,0.0
1479925535.1,286047011.2,N,0.0,0.0
1479925555.9,286047010.9,N,0.0,0.0
1479925575.7,286047011.6,N,0.0,0.0
1479925595.5,286047011.7,N,0.0,0.0
1479925615.4,286047013.3,N,0.0,0.0
1479925635.2,286047012.9,N,0.0,0.0
1479925655.1,286047015.5,N,0.0,0.0
1479925656.0,286047015.5,N,0.0,0.0
1479925675.8,286047015.0,N,0.0,0.0
1479925695.6,286047015.4,N,0.0,0.0
1479925715.5,286047015.1,N,0.0,0.0
1479925735.3,286047015.4,N,0.0,0.0
1479925755.1,286047015.0,N,0.0,0.0
1479925775.9,286047015.1,N,0.0,0.0
1479925795.7,286047014.8,N,0.0,0.0
1479925815.6,286047014.2,N,0.0,0.0
1479925835.4,286047014.6,N,0.0,0.0
1479925855.2,286047014.4,N,0.0,0.0
1479925875.1,286047016.9,N,0.0,0.0
1479925876.0,286047016.9,N,0.0,0.0
1479925895.8,286047016.9,N,0.0,0.0
1479925915.7,286047015.7,N,0.0,0.0
1479925935.5,286047015.8,N,0.0,0.0
1479925955.3,286047018.4,N,0.0,0.0
1479925975.2,286047017.9,N,0.0,0.0
1479925995.9,286047018.3,N,0.0,0.0
1479926015.7,286047017.6,N,0.0,0.0
1479926035.6,286047018.4,N,0.0,0.0
1479926055.4,286047016.2,N,0.0,0.0
1479926075.3,286047016.6,N,0.0,0.0
1479926095.1,286047016.5,N,0.0,0.0
1479926096.0,286047016.5,N,0.0,0.0
1479926115.8,286047016.5,N,0.0,0.0
1479926135.7,286047016.2,N,0.0,0.0
1479926155.5,286047018.8,N,0.0,0.0
1479926175.4,286047020.4,N,0.0,0.0
1479926195.2,286047020.0,N,0.0,0.0
1479926215.0,286047020.3,N,0.0,0.0
1479926215.9,286047020.3,N,0.0,0.0
1479926235.8,286047018.1,N,0.0,0.0
1479926255.6,286047020.3,N,0.0,0.0
1479926275.4,286047020.1,N,0.0,0.0
1479926295.3,286047019.6,N,0.0,0.0
1479926315.1,286047019.8,N,0.0,0.0
1479926335.9,286047020.4,N,0.0,0.0
1479926355.7,286047020.2,N,0.0,0.0
1479926375.5,286047020.1,N,0.0,0.0
1479926395.4,286047019.3,N,0.0,0.0
1479926415.2,286047019.7,N,0.0,0.0
1479926435.0,286047022.0,N,0.0,0.0
1479926436.0,286047022.0,N,0.0,0.0
1479926455.8,286047019.2,N,0.0,0.0
1479926475.6,286047018.9,N,0.0,0.0
1479926495.5,286047019.2,N,0.0,0.0
1479926515.3,286047021.2,N,0.0,0.0
1479926535.1,286047022.8,N,0.0,0.0
1479926555.9,286047022.9,N,0.0,0.0
1479926575.7,286047023.0,N,0.0,0.0
1479926595.6,286047023.0,N,0.0,0.0
1479926615.4,286047023.3,N,0.0,0.0
1479926635.2,286047023.3,N,0.0,0.0
1479926655.1,286047024.7,N,0.0,0.0
1479926656.0,286047024.7,N,0.0,0.0
1479926675.8,286047026.0,N,0.0,0.0
1479926695.7,286047025.6,N,0.0,0.0
1479926715.5,286047026.2,N,0.0,0.0
1479926735.3,286047024.5,N,0.0,0.0
1479926755.2,286047024.4,N,0.0,0.0
1479926775.9,286047026.6,N,0.0,0.0
1479926795.7,286047025.6,N,0.0,0.0
1479926815.6,286047028.0,N,0.0,0.0
1479926835.4,286047026.9,N,0.0,0.0
1479926855.3,286047026.9,N,0.0,0.0
1479926875.1,286047028.2,N,0.0,0.0
1479926876.0,286047028.2,N,0.0,0.0
1479926895.8,286047030.0,N,0.0,0.0
1479926915.7,286047029.9,N,0.0,0.0
1479926935.5,286047029.1,N,0.0,0.0
1479926955.3,286047029.3,N,0.0,0.0
1479926975.2,286047027.3,N,0.0,0.0
1479926995.0,286047029.8,N,0.0,0.0
1479926995.9,286047029.8,N,0.0,0.0
1479927015.8,286047031.5,N,0.0,0.0
1479927035.6,286047031.0,N,0.0,0.0
1479927055.4,286047030.3,N,0.0,0.0
1479927075.3,286047031.9,N,0.0,0.0
1479927095.1,286047030.8,N,0.0,0.0
1479927115.9,286047031.4,N,0.0,0.0
1479927135.7,286047030.2,N,0.0,0.0
1479927155.5,286047032.6,N,0.0,0.0
1479927175.4,286047030.8,N,0.0,0.0
1479927195.2,286047031.6,N,0.0,0.0
1479927215.0,286047033.1,N,0.0,0.0
1479927215.9,286047033.1,N,0.0,0.0
1479927235.8,286047032.7,N,0.0,0.0
1479927255.6,286047032.5,N,0.0,0.0
1479927275.5,286047032.9,N,0.0,0.0
1479927295.3,286047032.4,N,0.0,0.0
1479927315.1,286047030.2,N,0.0,0.0
1479927335.9,286047031.7,N,0.0,0.0
1479927355.7,286047034.7,N,0.0,0.0
1479927375.6,286047033.4,N,0.0,0.0
1479927395.4,286047036.0,N,0.0,0.0
1479927415.2,286047033.4,N,0.0,0.0
1479927435.1,286047033.3,N,0.0,0.0
1479927436.0,286047033.3,N,0.0,0.0
1479927455.8,286047033.9,N,0.0,0.0
1479927475.7,286047034.1,N,0.0,0.0
1479927495.5,286047033.6,N,0.0,0.0
1479927515.3,286047033.5,N,0.0,0.0
1479927535.2,286047033.7,N,0.0,0.0
1479927555.9,286047035.9,N,0.0,0.0
1479927575.7,286047033.6,N,0.0,0.0
1479927595.6,286047033.8,N,0.0,0.0
